This is the latest recevied weather packets stored in our database for station/object KC4MCQ-10. If no packets are shown the sender has not sent any weather packets the latest 10 day(s).
| Time | Temp. | Humidity | Pressure | Rain* | Wind** | Luminosity | Snow |
|---|---|---|---|---|---|---|---|
| 1787705904 | 25° C | 91% | 1017 hPa | 27.18 mm | 0 m/s | - | - |
| 1787705290 | 25° C | 91% | 1016.7 hPa | 27.18 mm | 0 m/s | - | - |
| 1787704686 | 25.56° C | 91% | 1016.5 hPa | 27.18 mm | 0.45 m/s, 122° | - | - |
| 1787704085 | 25.56° C | 91% | 1016.4 hPa | 27.18 mm | 0.45 m/s, 123° | - | - |
| 1787703483 | 25.56° C | 90% | 1016.4 hPa | 27.18 mm | 0.45 m/s, 123° | - | - |
| 1787702882 | 25.56° C | 90% | 1016.4 hPa | 27.18 mm | 0 m/s | - | - |
| 1787702278 | 25.56° C | 90% | 1016.5 hPa | 27.18 mm | 0 m/s | - | - |
| 1787701655 | 25.56° C | 89% | 1016.4 hPa | 27.18 mm | 0 m/s | - | - |
| 1787701050 | 26.11° C | 89% | 1016.4 hPa | 27.18 mm | 0.89 m/s, 122° | - | - |
| 1787700446 | 26.11° C | 89% | 1016.4 hPa | 27.18 mm | 0 m/s | - | - |
| 1787699841 | 26.11° C | 89% | 1016.2 hPa | 27.18 mm | 1.79 m/s, 79° | - | - |
| 1787699238 | 26.11° C | 88% | 1016 hPa | 27.18 mm | 0.89 m/s, 80° | - | - |
| 1787698633 | 26.11° C | 88% | 1016.1 hPa | 27.18 mm | 0.45 m/s, 81° | - | - |
| 1787698033 | 26.67° C | 88% | 1016.1 hPa | 27.18 mm | 0 m/s | - | - |
| 1787697432 | 26.67° C | 88% | 1015.8 hPa | 27.18 mm | 0.89 m/s, 85° | - | - |
| 1787696824 | 27.22° C | 88% | 1016 hPa | 27.18 mm | 1.34 m/s, 65° | - | - |
| 1787696223 | 27.22° C | 88% | 1015.8 hPa | 27.18 mm | 0.45 m/s, 40° | - | - |
| 1787695622 | 27.22° C | 88% | 1016 hPa | 27.18 mm | 0.45 m/s, 5° | - | - |
| 1787694405 | 26.67° C | 89% | 1015.7 hPa | 27.18 mm | 0.89 m/s, 304° | - | - |
| 1787693802 | 26.67° C | 89% | 1015.6 hPa | 27.18 mm | 1.34 m/s, 308° | - | - |
| 1787693201 | 26.67° C | 90% | 1015.1 hPa | 27.18 mm | 0 m/s | - | - |
| 1787692598 | 26.67° C | 89% | 1015.1 hPa | 27.18 mm | 0.45 m/s, 124° | - | - |
| 1787691992 | 26.67° C | 89% | 1015.2 hPa | 27.18 mm | 0 m/s | - | - |
| 1787691360 | 26.67° C | 89% | 1015.5 hPa | 27.18 mm | 0.45 m/s, 124° | - | - |
| 1787690756 | 27.22° C | 88% | 1015.8 hPa | 27.18 mm | 0 m/s | - | - |
* Rain latest 24 hours (hover to see other rain measurements)
** Current wind speed in m/s (hover to see current wind gust speed)